Location: Brachstadt
(48.6975°N, 10.6755°E)
Time: 09:07:02
(UTC+00:00)

SJ-6B - Pass Details

Date: 18 September 2020
Orbit: 511 x 580 km, 97.6° (Epoch: 27 October)

Event Time Altitude Azimuth Distance (km) Brightness Sun altitude
Exits shadow 19:21:56 20° 191° (S) 1,215 4.4 -19.7°
Maximum altitude 19:24:16 51° 260° (W) 654 3.4 -20.1°
Drops below altitude 10° 19:27:57 10° 337° (NNW) 1,754 6.1 -20.6°
Sets 19:30:06 0° 343° (NNW) 2,654 7.0 -20.9°
